| time (UTC) | temp F | wind direction | speed MPH | gust MPH | rain 1hr in | rain 24hr in | rain mn in | humidity % | barometer mb |
| 20260504000013 | 64 | 193 | 0.0 | 4.0 | 0.00 | 0.00 | 0.00 | 40 | 1016.6 |
| 20260503234522 | 64 | 172 | 1.0 | 3.0 | 0.00 | 0.00 | 0.00 | 39 | 1016.7 |
| 20260503233021 | 64 | 180 | 1.0 | 3.0 | 0.00 | 0.00 | 0.00 | 37 | 1016.8 |
| 20260503231518 | 65 | 173 | 3.0 | 7.0 | 0.00 | 0.00 | 0.00 | 36 | 1017.0 |
| 20260503230016 | 66 | 246 | 2.0 | 6.0 | 0.00 | 0.00 | 0.00 | 37 | 1017.1 |
| 20260503224512 | 66 | 318 | 1.0 | 6.0 | 0.00 | 0.00 | 0.00 | 37 | 1017.3 |
| 20260503223008 | 68 | 129 | 1.0 | 6.0 | 0.00 | 0.00 | 0.00 | 36 | 1017.3 |
| 20260503221507 | 66 | 168 | 2.0 | 6.0 | 0.00 | 0.00 | 0.00 | 35 | 1017.4 |
| 20260503220026 | 65 | 275 | 3.0 | 9.0 | 0.00 | 0.00 | 0.00 | 35 | 1017.6 |
| 20260503214529 | 66 | 242 | 3.0 | 8.0 | 0.00 | 0.00 | 0.00 | 36 | 1017.8 |
| 20260503213023 | 65 | 237 | 3.0 | 9.0 | 0.00 | 0.00 | 0.00 | 34 | 1017.9 |
| 20260503211515 | 68 | 321 | 1.0 | 7.0 | 0.00 | 0.00 | 0.00 | 39 | 1018.0 |
| 20260503210036 | 67 | 289 | 3.0 | 10.0 | 0.00 | 0.00 | 0.00 | 34 | 1018.2 |
| 20260503204511 | 67 | 358 | 1.0 | 3.0 | 0.00 | 0.00 | 0.00 | 36 | 1018.3 |
| 20260503203014 | 65 | 287 | 2.0 | 7.0 | 0.00 | 0.00 | 0.00 | 38 | 1018.6 |
| 20260503201534 | 69 | 166 | 0.0 | 4.0 | 0.00 | 0.00 | 0.00 | 41 | 1018.8 |
| 20260503200022 | 67 | 248 | 3.0 | 6.0 | 0.00 | 0.00 | 0.00 | 37 | 1019.1 |
| 20260503194521 | 63 | 194 | 3.0 | 9.0 | 0.00 | 0.00 | 0.00 | 38 | 1019.3 |
| 20260503193015 | 65 | 292 | 1.0 | 9.0 | 0.00 | 0.00 | 0.00 | 50 | 1019.4 |
| 20260503191512 | 63 | 299 | 3.0 | 7.0 | 0.00 | 0.00 | 0.00 | 43 | 1019.7 |
| 20260503190013 | 63 | 284 | 4.0 | 9.0 | 0.00 | 0.00 | 0.00 | 39 | 1019.7 |
| 20260503184511 | 63 | 61 | 3.0 | 7.0 | 0.00 | 0.00 | 0.00 | 39 | 1019.9 |
| 20260503183026 | 61 | 306 | 4.0 | 13.0 | 0.00 | 0.00 | 0.00 | 42 | 1020.1 |
| 20260503181524 | 63 | 298 | 3.0 | 10.0 | 0.00 | 0.00 | 0.00 | 44 | 1020.3 |
| 20260503180020 | 63 | 286 | 1.0 | 6.0 | 0.00 | 0.00 | 0.00 | 44 | 1020.4 |
| 20260503174518 | 61 | 226 | 2.0 | 8.0 | 0.00 | 0.00 | 0.00 | 40 | 1020.6 |
| 20260503173016 | 60 | 323 | 4.0 | 11.0 | 0.00 | 0.00 | 0.00 | 43 | 1020.8 |
| 20260503171513 | 61 | 314 | 3.0 | 11.0 | 0.00 | 0.00 | 0.00 | 48 | 1021.0 |
| 20260503081523 | 46 | 103 | 0.0 | 0.0 | 0.00 | 0.00 | 0.00 | 77 | 1019.7 |
| 20260503071535 | 48 | 103 | 0.0 | 0.0 | 0.00 | 0.00 | 0.00 | 75 | 1018.8 |
| 20260503054534 | 54 | 313 | 0.0 | 0.0 | 0.00 | 0.00 | 0.00 | 69 | 1018.7 |
| 20260503053006 | 54 | 313 | 0.0 | 0.0 | 0.00 | 0.00 | 0.00 | 67 | 1018.5 |
| 20260503051522 | 53 | 313 | 0.0 | 2.0 | 0.00 | 0.00 | 0.00 | 69 | 1018.6 |
| 20260503050021 | 50 | 313 | 0.0 | 0.0 | 0.00 | 0.00 | 0.00 | 74 | 1018.4 |
| 20260503044533 | 49 | 313 | 0.0 | 0.0 | 0.00 | 0.00 | 0.00 | 72 | 1018.4 |
| 20260503043014 | 53 | 313 | 0.0 | 1.0 | 0.00 | 0.00 | 0.00 | 65 | 1018.3 |
| 20260503041512 | 55 | 313 | 0.0 | 2.0 | 0.00 | 0.00 | 0.00 | 63 | 1018.2 |
| 20260503040010 | 54 | 313 | 0.0 | 2.0 | 0.00 | 0.00 | 0.00 | 63 | 1018.0 |
| 20260503034524 | 56 | 313 | 0.0 | 2.0 | 0.00 | 0.00 | 0.00 | 57 | 1018.1 |
| 20260503033022 | 54 | 280 | 0.0 | 2.0 | 0.00 | 0.00 | 0.00 | 61 | 1018.1 |
| 20260503031521 | 54 | 309 | 0.0 | 3.0 | 0.00 | 0.00 | 0.00 | 60 | 1018.2 |
| 20260503030017 | 55 | 219 | 0.0 | 2.0 | 0.00 | 0.00 | 0.00 | 58 | 1018.0 |
| 20260503024514 | 55 | 39 | 1.0 | 3.0 | 0.00 | 0.00 | 0.00 | 57 | 1017.7 |
| 20260503023010 | 55 | 64 | 0.0 | 3.0 | 0.00 | 0.00 | 0.00 | 58 | 1017.5 |
| 20260503021508 | 56 | 36 | 1.0 | 3.0 | 0.00 | 0.00 | 0.00 | 56 | 1017.5 |
| 20260503020027 | 56 | 288 | 0.0 | 2.0 | 0.00 | 0.00 | 0.00 | 56 | 1017.4 |
| 20260503014524 | 56 | 59 | 0.0 | 2.0 | 0.00 | 0.00 | 0.00 | 55 | 1017.1 |
| 20260503013030 | 55 | 74 | 1.0 | 4.0 | 0.00 | 0.00 | 0.00 | 55 | 1016.7 |
| 20260503011520 | 55 | 359 | 0.0 | 5.0 | 0.00 | 0.00 | 0.00 | 56 | 1016.5 |
| 20260503010015 | 59 | 129 | 0.0 | 2.0 | 0.00 | 0.00 | 0.00 | 52 | 1016.3 |
| 20260503004514 | 57 | 217 | 0.0 | 2.0 | 0.00 | 0.00 | 0.00 | 52 | 1016.3 |
| 20260503003010 | 59 | 217 | 0.0 | 2.0 | 0.00 | 0.00 | 0.00 | 53 | 1016.0 |
| 20260503001526 | 58 | 233 | 0.0 | 2.0 | 0.00 | 0.00 | 0.00 | 47 | 1015.8 |